Regional Weather Roundup
Issued by NWS

Home | Current Version | Previous Version | Text Only | Print | Product List | Glossary Off
Versions: 1 2 3 4 5 6 7 8 9 10 11 12 13 14 15 16 17 18 19 20 21 22 23 24 25 26 27

000
ASUS45 KCYS 290610
RWRWY

WYOMING REGIONAL WEATHER ROUNDUP
NATIONAL WEATHER SERVICE CHEYENNE WY
1200 AM MDT THU SEP 29 2016

NOTE:  "FAIR" INDICATES FEW OR NO CLOUDS BELOW 12,000 FEET
WITH NO SIGNIFICANT WEATHER AND/OR OBSTRUCTIONS TO VISIBILITY.

WYZ001-290700-
YELLOWSTONE NATIONAL PARK

CITY           SKY/WX    TMP DP  RH WIND       PRES   REMARKS
LK YELLOWSTONE   N/A     37  33  85 CALM      30.42S
6HR MIN TEMP:  37; 6HR MAX TEMP:  66;

W YELLOWSTONE  NOT AVBL

$$
WYZ002>013-054>058-071-098>099-290700-
NORTHERN WYOMING

CITY           SKY/WX    TMP DP  RH WIND       PRES   REMARKS
JACKSON        FAIR      48  37  66 CALM      30.31S
CODY           FAIR      54  41  62 S6        30.25S
GREYBULL       FAIR      58  45  62 NW5       30.19R
6HR MIN TEMP:  58; 6HR MAX TEMP:  79;

WORLAND        FAIR      57  41  55 SE3       30.19F
6HR MIN TEMP:  53; 6HR MAX TEMP:  79;

SHERIDAN       FAIR      68  37  32 SE10      30.19F
6HR MIN TEMP:  58; 6HR MAX TEMP:  76;

BUFFALO        FAIR      60  40  47 S13       30.30F
6HR MIN TEMP:  59; 6HR MAX TEMP:  74;

GILLETTE       FAIR      58  46  64 S13       30.29S
6HR MIN TEMP:  54; 6HR MAX TEMP:  74;

HULETT         FAIR      55  43  62 CALM      30.31F
NEWCASTLE      FAIR      55  37  50 SE18      30.35R

$$
WYZ014>020-022>026-101>103-290700-
CENTRAL WYOMING

CITY           SKY/WX    TMP DP  RH WIND       PRES   REMARKS
BIG PINEY      FAIR      45  33  63 CALM      30.37R
6HR MIN TEMP:  42; 6HR MAX TEMP:  72;

PINEDALE       FAIR      39  32  75 NW8       30.37S WCI  34
DUBOIS         FAIR      46  36  66 NW7       30.40S
LANDER         FAIR      56  40  55 VRB3      30.27F
6HR MIN TEMP:  54; 6HR MAX TEMP:  74;

RIVERTON       FAIR      57  39  51 N5        30.28F
6HR MIN TEMP:  57; 6HR MAX TEMP:  75; 6HR PCP: TRACE;

CASPER         FAIR      48  39  71 NW7       30.30S
6HR MIN TEMP:  46; 6HR MAX TEMP:  74;

DOUGLAS        FAIR      53  39  59 SE13      30.33F
6HR MIN TEMP:  51; 6HR MAX TEMP:  75;


$$
WYZ021-027>030-104>119-290700-
SOUTHERN WYOMING

CITY           SKY/WX    TMP DP  RH WIND       PRES   REMARKS
EVANSTON       FAIR      53  41  63 S6        30.35R
6HR MIN TEMP:  53; 6HR MAX TEMP:  72;

FORT BRIDGER   FAIR      62  35  37 SW12      30.37S
ROCK SPRINGS   FAIR      55  37  50 E7        30.33S
6HR MIN TEMP:  55; 6HR MAX TEMP:  72; 6HR PCP: TRACE;

DIXON          CLOUDY    57  35  43 CALM      30.35S
RAWLINS        FAIR      53  34  48 NE9       30.36S
6HR MIN TEMP:  53; 6HR MAX TEMP:  74;

SARATOGA       FAIR      52  32  46 SE14      30.37F
LARAMIE        FAIR      54  34  46 SE21G29   30.43S
6HR MIN TEMP:  54; 6HR MAX TEMP:  67;

CHEYENNE       FAIR      54  35  48 S9        30.44R
6HR MIN TEMP:  54; 6HR MAX TEMP:  72;

TORRINGTON     FAIR      55  42  61 E12       30.34R
6HR MIN TEMP:  54; 6HR MAX TEMP:  76;

PINE BLUFFS    FAIR      55  36  47 S10G17    30.39S

$$




USA.gov is the U.S. government's official web portal to all federal, state and local government web resources and services.